Bellingham, WA

10:04 PM PST on February 22, 2017 (GMT -0800)
Bellingham International

Weather History for KBLI - May, 2013

Change the Weather History Date:

Tuesday, May 21, 2013

  Actual Average Record
Temperature  
Mean Temperature 50 °F 55 °F  
Max Temperature 53 °F 63 °F 87 °F (1963)
Min Temperature 46 °F 47 °F 35 °F (1971)
Degree Days  
Heating Degree Days 15 10  
Month to date heating degree days 177 252  
Cooling Degree Days 0 0  
Month to date cooling degree days 0 0  
Year to date cooling degree days 0 0  
Moisture  
Dew Point 47 °F    
Average Humidity 85    
Maximum Humidity 93    
Minimum Humidity 77    
Precipitation  
Precipitation 0.44 in 0.08 in 0.65 in (2012)
Month to date precipitation 1.46 1.67  
Year to date precipitation 12.13 15.27  
Sea Level Pressure  
Sea Level Pressure 29.84 in    
Wind  
Wind Speed 3 mph (SW)    
Max Wind Speed 9 mph    
Max Gust Speed 13 mph    
Visibility 8 miles    
Events Rain    
T = Trace of Precipitation, MM = Missing Value Source: NWS Daily Summary

Daily Weather History Graph

Daily Weather History Graph

Search for Another Location

Airport or City:

Trip Planner

Search our weather history database for the weather conditions in past years. The results will help you decide how hot, cold, wet, or windy it might be!

Date:

Astronomy

May. 21, 2013 Rise Set
Actual Time 5:20 AM PDT 8:53 PM PDT
Civil Twilight 4:41 AM PDT 9:32 PM PDT
Nautical Twilight 3:49 AM PDT 10:25 PM PDT
Astronomical Twilight 2:38 AM PDT 11:37 PM PDT
Moon 4:56 PM PDT (5/21) 3:11 AM PDT (5/21)
Length of Visible Light 16h 50m
Length of Day
15h 32m
Waxing Gibbous, 85% of the Moon is Illuminated
May 21
Waxing Gibbous
May 24
Full
May 31
Last Quarter
Jun 8
New
Jun 16
First Quarter

Hourly Weather History & Observations

Time (PDT) Temp. Dew Point Humidity Pressure Visibility Wind Dir Wind Speed Gust Speed Precip Events Conditions
12:16 AM 53.6 °F 46.4 °F 77% 29.92 in 10.0 mi WNW 8.1 mph - N/A   Overcast
12:53 AM 52.0 °F 46.9 °F 83% 29.93 in 10.0 mi WNW 5.8 mph - 0.01 in Rain Light Rain
1:53 AM 51.1 °F 48.0 °F 89% 29.89 in 8.0 mi Calm Calm - 0.01 in Rain Light Rain
2:27 AM 50.0 °F 48.2 °F 94% 29.87 in 7.0 mi Calm Calm - 0.04 in Rain Light Rain
2:53 AM 50.0 °F 48.0 °F 93% 29.88 in 7.0 mi NNE 4.6 mph - 0.07 in Rain Light Rain
3:03 AM 50.0 °F 48.2 °F 94% 29.86 in 7.0 mi East 4.6 mph - 0.01 in Rain Light Rain
3:22 AM 50.0 °F 48.2 °F 94% 29.85 in 6.0 mi Calm Calm - 0.03 in Rain Light Rain
3:53 AM 50.0 °F 48.0 °F 93% 29.85 in 5.0 mi NE 3.5 mph - 0.09 in Rain Light Rain
4:28 AM 50.0 °F 48.2 °F 94% 29.83 in 9.0 mi Calm Calm - 0.01 in Rain Light Rain
4:40 AM 50.0 °F 48.2 °F 94% 29.84 in 10.0 mi Calm Calm - 0.01 in Rain Light Rain
4:53 AM 50.0 °F 48.0 °F 93% 29.86 in 10.0 mi Calm Calm - 0.01 in   Overcast
5:15 AM 50.0 °F 48.2 °F 94% 29.83 in 7.0 mi Calm Calm - 0.00 in Rain Light Rain
5:28 AM 50.0 °F 48.2 °F 94% 29.82 in 7.0 mi Variable 3.5 mph - 0.00 in   Overcast
5:49 AM 50.0 °F 48.2 °F 94% 29.83 in 9.0 mi Calm Calm - 0.00 in   Overcast
5:53 AM 50.0 °F 46.9 °F 89% 29.85 in 9.0 mi Calm Calm - 0.00 in   Overcast
6:27 AM 48.2 °F 46.4 °F 93% 29.83 in 1.8 mi West 3.5 mph - 0.03 in Rain Light Rain
6:53 AM 48.9 °F 46.9 °F 93% 29.84 in 2.0 mi WNW 4.6 mph - 0.05 in Rain Light Rain
7:05 AM 48.2 °F 46.4 °F 93% 29.82 in 3.0 mi WNW 6.9 mph - 0.01 in Rain Light Rain
7:12 AM 48.2 °F 46.4 °F 93% 29.82 in 2.5 mi WNW 4.6 mph - 0.02 in Rain Light Rain
7:41 AM 48.2 °F 46.4 °F 93% 29.82 in 3.0 mi Calm Calm - 0.05 in Rain Light Rain
7:53 AM 48.0 °F 46.9 °F 96% 29.84 in 3.0 mi Calm Calm - 0.07 in Rain Light Rain
8:06 AM 48.2 °F 46.4 °F 93% 29.82 in 3.0 mi West 3.5 mph - 0.02 in Rain Light Rain
8:22 AM 48.2 °F 46.4 °F 93% 29.81 in 2.5 mi Variable 3.5 mph - 0.03 in Rain Light Rain
8:34 AM 48.2 °F 46.4 °F 93% 29.81 in 4.0 mi West 4.6 mph - 0.04 in Rain Light Rain
8:53 AM 48.0 °F 46.0 °F 93% 29.83 in 5.0 mi West 3.5 mph - 0.05 in Rain Light Rain
9:53 AM 48.0 °F 45.0 °F 89% 29.82 in 4.0 mi Calm Calm - 0.02 in Rain Light Rain
10:27 AM 48.2 °F 46.4 °F 93% 29.80 in 9.0 mi Calm Calm - 0.01 in Rain Light Rain
10:53 AM 50.0 °F 46.0 °F 86% 29.82 in 9.0 mi Calm Calm - 0.01 in Rain Light Rain
11:53 AM 48.9 °F 46.0 °F 90% 29.82 in 5.0 mi Calm Calm - 0.04 in Rain Light Rain
12:53 PM 48.9 °F 46.0 °F 90% 29.83 in 10.0 mi South 4.6 mph - 0.01 in   Overcast
1:00 PM 48.2 °F 46.4 °F 93% 29.80 in 10.0 mi South 6.9 mph - 0.00 in Rain Light Rain
1:53 PM 50.0 °F 46.0 °F 86% 29.83 in 10.0 mi SSE 9.2 mph - 0.00 in Rain Light Rain
2:53 PM 50.0 °F 46.0 °F 86% 29.83 in 10.0 mi South 5.8 mph - 0.00 in   Overcast
3:53 PM 50.0 °F 46.0 °F 86% 29.83 in 10.0 mi South 3.5 mph - 0.01 in Rain Light Rain
4:53 PM 50.0 °F 46.9 °F 89% 29.82 in 10.0 mi Calm Calm - 0.00 in   Overcast
5:04 PM 51.8 °F 46.4 °F 82% 29.81 in 10.0 mi South 3.5 mph - N/A   Overcast
5:12 PM 51.8 °F 46.4 °F 82% 29.80 in 10.0 mi Calm Calm - N/A   Overcast
5:53 PM 52.0 °F 46.9 °F 83% 29.82 in 10.0 mi South 4.6 mph - N/A   Scattered Clouds
6:53 PM 52.0 °F 44.1 °F 74% 29.82 in 10.0 mi South 3.5 mph - N/A   Scattered Clouds
7:53 PM 51.1 °F 45.0 °F 80% 29.83 in 10.0 mi Calm Calm - N/A   Mostly Cloudy
8:53 PM 51.1 °F 45.0 °F 80% 29.84 in 10.0 mi Calm Calm - N/A   Overcast
9:53 PM 48.0 °F 45.0 °F 89% 29.85 in 10.0 mi Calm Calm - N/A   Mostly Cloudy
10:53 PM 46.9 °F 44.1 °F 90% 29.86 in 10.0 mi Calm Calm - N/A   Overcast
11:50 PM 48.2 °F 44.6 °F 87% 29.84 in 10.0 mi SSE 3.5 mph - N/A   Overcast
11:53 PM 48.9 °F 45.0 °F 86% 29.87 in 10.0 mi SE 6.9 mph - N/A   Overcast